This is the latest recevied weather packets stored in our database for station/object DO1TOB-60. If no packets are shown the sender has not sent any weather packets the latest 1 day(s).
| Time | Temp. | Humidity | Pressure | Rain* | Wind** | Luminosity | Snow |
|---|---|---|---|---|---|---|---|
| 1778004982 | 12.22° C | 95% | 1007.7 hPa | 0.25 mm | 0.89 m/s, 355° | - | - |
| 1778004802 | 12.22° C | 95% | 1007.7 hPa | 0.25 mm | 1.79 m/s, 331° | - | - |
| 1778004742 | 12.22° C | 95% | 1007.7 hPa | 0.25 mm | 1.79 m/s, 330° | - | - |
| 1778004562 | 12.22° C | 95% | 1007.8 hPa | 0.25 mm | 0.45 m/s, 331° | - | - |
| 1778004441 | 12.22° C | 95% | 1007.8 hPa | 0.25 mm | 0.45 m/s, 328° | - | - |
| 1778004382 | 12.22° C | 95% | 1007.8 hPa | 0.25 mm | 0.89 m/s, 338° | - | - |
| 1778004321 | 12.22° C | 95% | 1007.8 hPa | 0.25 mm | 1.34 m/s, 338° | - | - |
| 1778004263 | 12.22° C | 95% | 1007.8 hPa | 0.25 mm | 1.79 m/s, 337° | - | - |
| 1778004142 | 12.22° C | 94% | 1007.8 hPa | 0.25 mm | 0.89 m/s, 336° | - | - |
| 1778004022 | 12.22° C | 94% | 1007.8 hPa | 0.25 mm | 1.79 m/s, 336° | - | - |
| 1778003962 | 12.22° C | 94% | 1007.8 hPa | 0.25 mm | 0.45 m/s, 347° | - | - |
| 1778003902 | 12.22° C | 94% | 1007.8 hPa | 0.25 mm | 0.45 m/s, 335° | - | - |
| 1778003842 | 12.22° C | 94% | 1007.8 hPa | 0.25 mm | 0.45 m/s, 48° | - | - |
| 1778003542 | 12.22° C | 94% | 1007.7 hPa | 0.25 mm | 0.45 m/s, 339° | - | - |
| 1778003482 | 12.22° C | 94% | 1007.7 hPa | 0.25 mm | 0.45 m/s, 340° | - | - |
| 1778003421 | 12.22° C | 94% | 1007.7 hPa | 0.25 mm | 0.89 m/s, 327° | - | - |
| 1778003301 | 12.22° C | 94% | 1007.7 hPa | 0.25 mm | 0.45 m/s, 334° | - | - |
| 1778003241 | 12.22° C | 94% | 1007.8 hPa | 0.25 mm | 0.89 m/s, 334° | - | - |
| 1778003182 | 12.22° C | 94% | 1007.8 hPa | 0.25 mm | 0.89 m/s, 336° | - | - |
| 1778003122 | 12.22° C | 94% | 1007.8 hPa | 0.25 mm | 0.89 m/s, 338° | - | - |
| 1778003062 | 12.22° C | 94% | 1007.7 hPa | 0.25 mm | 0.89 m/s, 320° | - | - |
| 1778003002 | 12.22° C | 94% | 1007.7 hPa | 0.25 mm | 1.79 m/s, 336° | - | - |
| 1778002942 | 12.22° C | 94% | 1007.8 hPa | 0.25 mm | 1.34 m/s, 332° | - | - |
| 1778002881 | 12.22° C | 94% | 1007.8 hPa | 0.25 mm | 1.34 m/s, 329° | - | - |
| 1778002822 | 12.22° C | 94% | 1007.8 hPa | 0.25 mm | 1.79 m/s, 327° | - | - |
* Rain latest hour (hover to see other rain measurements)
** Current wind speed in m/s (hover to see current wind gust speed)